Total_Precipitation_Accumulation
0.23 0.21 0.23 0.30 0.32 0.25 0.13 0.05 0.02 0.01 0.02 0.03 0.07 0.10 0.12 0.12 0.13 0.18 0.16 0.14 0.17 0.19 0.24 0.42 0.62 0.74 0.81 0.82 0.82 0.78 0.69 0.73 0.77 0.80 0.85 0.94 0.98 0.97 1.00 0.93 0.91 0.96 1.03 1.04 1.05 1.00 0.93 0.84 0.82
0.24 0.28 0.35 0.40 0.27 0.18 0.10 0.05 0.02 0.02 0.03 0.04 0.08 0.10 0.10 0.08 0.07 0.10 0.16 0.16 0.15 0.16 0.21 0.34 0.59 0.73 0.83 0.86 0.86 0.82 0.79 0.78 0.80 0.80 0.86 0.94 1.01 1.07 1.03 0.92 0.93 0.99 1.05 1.06 1.03 0.97 0.91 0.85 0.78
0.32 0.41 0.47 0.41 0.23 0.10 0.07 0.04 0.03 0.03 0.03 0.06 0.08 0.11 0.13 0.11 0.09 0.12 0.15 0.13 0.17 0.18 0.22 0.38 0.64 0.77 0.83 0.88 0.87 0.85 0.87 0.86 0.86 0.84 0.89 1.03 1.06 1.06 0.99 0.90 0.87 0.92 1.03 1.10 1.05 0.92 0.86 0.83 0.78
0.41 0.58 0.59 0.40 0.17 0.08 0.06 0.05 0.03 0.04 0.04 0.06 0.09 0.11 0.14 0.14 0.11 0.14 0.15 0.13 0.20 0.23 0.27 0.42 0.65 0.80 0.86 0.89 0.90 0.90 0.90 0.89 0.92 0.92 0.97 1.06 1.05 1.07 1.01 0.93 0.86 0.84 0.89 0.98 0.98 0.89 0.86 0.82 0.74
0.49 0.61 0.58 0.34 0.14 0.09 0.06 0.04 0.04 0.05 0.05 0.07 0.10 0.12 0.13 0.16 0.14 0.15 0.15 0.17 0.19 0.27 0.34 0.48 0.76 0.89 0.95 0.98 0.95 0.93 0.92 0.95 0.99 1.05 1.07 1.10 1.07 1.06 1.03 0.98 0.90 0.84 0.80 0.85 0.92 0.91 0.88 0.84 0.74
0.65 0.64 0.46 0.27 0.14 0.09 0.07 0.05 0.05 0.06 0.05 0.07 0.10 0.12 0.17 0.19 0.18 0.19 0.20 0.23 0.22 0.29 0.40 0.55 0.85 1.01 1.08 1.07 1.06 1.04 1.03 1.09 1.14 1.15 1.18 1.18 1.09 1.02 0.99 1.00 0.91 0.84 0.76 0.73 0.77 0.81 0.81 0.80 0.74
0.66 0.59 0.34 0.19 0.16 0.11 0.08 0.06 0.07 0.07 0.07 0.09 0.09 0.13 0.20 0.23 0.21 0.23 0.29 0.30 0.33 0.40 0.50 0.62 0.83 1.02 1.17 1.16 1.12 1.16 1.15 1.17 1.24 1.26 1.22 1.18 1.09 1.05 1.04 0.99 0.91 0.86 0.81 0.74 0.70 0.71 0.70 0.68 0.67
0.70 0.70 0.40 0.20 0.16 0.13 0.08 0.07 0.08 0.08 0.08 0.10 0.11 0.13 0.18 0.22 0.21 0.27 0.42 0.45 0.47 0.56 0.70 0.79 0.90 1.02 1.13 1.20 1.20 1.19 1.20 1.23 1.28 1.30 1.23 1.13 1.11 1.09 1.05 0.94 0.90 0.91 0.91 0.84 0.76 0.72 0.68 0.62 0.58
0.78 0.86 0.45 0.19 0.16 0.14 0.11 0.11 0.10 0.10 0.11 0.12 0.13 0.14 0.17 0.21 0.25 0.33 0.46 0.59 0.65 0.70 0.84 0.95 1.03 1.09 1.18 1.24 1.24 1.38 1.44 1.45 1.45 1.38 1.32 1.28 1.23 1.16 1.02 0.87 0.86 0.93 0.95 0.87 0.80 0.77 0.71 0.66 0.55
0.81 0.71 0.36 0.14 0.12 0.14 0.15 0.15 0.15 0.15 0.16 0.15 0.16 0.16 0.21 0.29 0.34 0.40 0.47 0.55 0.68 0.73 0.84 0.98 1.07 1.14 1.26 1.35 1.44 1.57 1.64 1.63 1.57 1.35 1.28 1.30 1.20 1.13 1.00 0.92 0.90 0.93 0.93 0.90 0.85 0.83 0.80 0.75 0.60
0.64 0.48 0.25 0.15 0.12 0.16 0.19 0.17 0.18 0.21 0.22 0.20 0.24 0.25 0.30 0.41 0.46 0.53 0.57 0.57 0.60 0.69 0.82 0.95 1.12 1.29 1.39 1.43 1.55 1.60 1.63 1.62 1.61 1.49 1.35 1.29 1.31 1.25 1.18 1.08 1.07 1.06 1.00 0.99 0.97 0.97 0.87 0.77 0.68
0.48 0.34 0.27 0.21 0.16 0.19 0.22 0.22 0.22 0.24 0.25 0.24 0.30 0.36 0.40 0.47 0.53 0.57 0.66 0.67 0.63 0.71 0.83 0.97 1.18 1.34 1.43 1.46 1.56 1.60 1.54 1.46 1.42 1.39 1.42 1.41 1.38 1.29 1.21 1.15 1.13 1.16 1.09 1.04 1.00 0.94 0.87 0.76 0.68
0.44 0.29 0.23 0.24 0.20 0.21 0.23 0.24 0.22 0.21 0.21 0.25 0.27 0.33 0.42 0.46 0.56 0.64 0.77 0.85 0.77 0.75 0.85 1.04 1.24 1.38 1.50 1.56 1.63 1.62 1.53 1.42 1.42 1.37 1.39 1.36 1.25 1.18 1.07 1.04 1.06 0.99 0.94 0.91 0.90 0.90 0.86 0.77 0.72
0.39 0.29 0.23 0.26 0.26 0.25 0.27 0.24 0.21 0.20 0.18 0.23 0.28 0.31 0.38 0.45 0.55 0.68 0.85 0.88 0.83 0.80 0.91 1.11 1.32 1.47 1.62 1.59 1.63 1.61 1.57 1.55 1.61 1.54 1.36 1.32 1.25 1.17 1.11 1.02 1.00 0.94 0.85 0.81 0.81 0.78 0.80 0.78 0.71
0.39 0.40 0.33 0.25 0.26 0.27 0.35 0.35 0.21 0.17 0.21 0.25 0.29 0.31 0.34 0.41 0.54 0.65 0.77 0.83 0.84 0.89 1.04 1.19 1.34 1.57 1.73 1.70 1.69 1.68 1.68 1.66 1.63 1.66 1.61 1.45 1.34 1.27 1.23 1.13 1.02 0.99 0.95 0.92 0.89 0.85 0.84 0.79 0.72
0.60 0.67 0.56 0.30 0.24 0.28 0.48 0.48 0.20 0.16 0.23 0.27 0.28 0.33 0.36 0.39 0.48 0.61 0.75 0.88 0.93 1.03 1.18 1.30 1.46 1.65 1.78 1.83 1.84 1.78 1.74 1.79 1.71 1.71 1.78 1.77 1.57 1.40 1.31 1.25 1.14 1.12 1.14 1.12 1.07 0.97 0.92 0.84 0.74
0.84 0.76 0.51 0.31 0.24 0.32 0.49 0.44 0.21 0.18 0.23 0.25 0.27 0.32 0.34 0.40 0.46 0.56 0.67 0.82 0.95 1.08 1.25 1.38 1.52 1.71 1.88 1.98 1.99 1.97 1.86 1.84 1.84 1.82 1.79 1.85 1.89 1.68 1.48 1.35 1.32 1.33 1.34 1.27 1.18 1.10 0.99 0.92 0.83
0.72 0.53 0.39 0.30 0.25 0.32 0.40 0.31 0.20 0.20 0.23 0.22 0.25 0.32 0.31 0.37 0.43 0.52 0.64 0.78 0.94 1.06 1.27 1.46 1.61 1.77 1.97 2.15 2.19 2.19 2.10 1.93 1.89 1.87 1.78 1.74 1.82 1.85 1.72 1.55 1.47 1.48 1.49 1.44 1.32 1.19 1.12 1.04 1.02
0.51 0.52 0.41 0.26 0.22 0.38 0.37 0.27 0.22 0.21 0.24 0.25 0.26 0.33 0.33 0.37 0.45 0.52 0.67 0.81 0.96 1.08 1.23 1.40 1.54 1.70 1.92 2.08 2.15 2.14 2.09 1.94 1.87 1.82 1.77 1.75 1.79 1.85 1.83 1.64 1.57 1.46 1.42 1.38 1.34 1.30 1.27 1.20 1.20
0.59 0.66 0.51 0.36 0.27 0.42 0.40 0.30 0.24 0.22 0.24 0.27 0.28 0.35 0.36 0.37 0.44 0.49 0.61 0.77 0.86 0.96 1.10 1.32 1.51 1.62 1.81 1.96 1.99 2.09 2.07 2.00 1.90 1.83 1.79 1.73 1.73 1.84 1.93 1.82 1.71 1.64 1.55 1.50 1.50 1.47 1.43 1.37 1.28
0.64 0.59 0.51 0.49 0.42 0.46 0.52 0.45 0.26 0.22 0.21 0.24 0.26 0.31 0.33 0.38 0.41 0.43 0.55 0.70 0.82 0.88 1.00 1.19 1.43 1.60 1.70 1.93 2.20 2.39 2.46 2.29 2.14 1.96 1.82 1.71 1.69 1.73 1.86 1.94 1.88 1.83 1.79 1.70 1.57 1.54 1.53 1.54 1.42
0.69 0.38 0.43 0.53 0.80 0.85 0.68 0.80 0.31 0.22 0.19 0.22 0.26 0.28 0.29 0.34 0.37 0.39 0.48 0.63 0.74 0.84 1.00 1.17 1.28 1.52 1.75 1.88 2.14 2.38 2.49 2.32 1.99 1.88 1.84 1.80 1.74 1.73 1.77 1.84 1.87 1.84 1.81 1.73 1.61 1.53 1.47 1.55 1.60
0.57 0.40 0.47 0.60 0.93 1.09 0.72 0.85 0.38 0.24 0.24 0.23 0.26 0.28 0.28 0.33 0.36 0.37 0.43 0.54 0.66 0.83 0.99 1.16 1.26 1.44 1.72 1.92 2.04 2.31 2.47 2.35 2.17 2.05 1.93 1.83 1.80 1.78 1.74 1.75 1.81 1.85 1.81 1.77 1.70 1.64 1.64 1.64 1.62
0.55 0.66 0.77 0.91 1.48 1.79 0.67 0.66 0.46 0.34 0.35 0.27 0.28 0.32 0.32 0.36 0.41 0.40 0.43 0.53 0.61 0.81 0.94 1.14 1.29 1.35 1.60 1.85 2.02 2.17 2.40 2.50 2.39 2.24 2.13 1.96 1.89 1.83 1.77 1.68 1.71 1.81 1.84 1.82 1.82 1.78 1.76 1.78 1.69
0.89 1.51 2.21 2.40 2.45 1.48 0.37 0.48 0.52 0.34 0.31 0.35 0.39 0.41 0.40 0.40 0.43 0.45 0.47 0.54 0.57 0.75 0.88 1.06 1.28 1.31 1.41 1.61 1.84 2.04 2.24 2.44 2.53 2.38 2.18 2.07 2.03 1.95 1.79 1.69 1.64 1.69 1.71 1.71 1.74 1.84 1.87 1.87 1.88
0.92 1.34 1.80 1.68 1.11 0.55 0.33 0.48 0.45 0.35 0.30 0.30 0.35 0.39 0.37 0.38 0.42 0.48 0.50 0.53 0.56 0.63 0.76 0.94 1.17 1.26 1.28 1.40 1.58 1.88 2.15 2.34 2.45 2.49 2.28 2.12 2.01 1.90 1.79 1.72 1.64 1.59 1.61 1.65 1.68 1.73 1.78 1.82 1.82
0.90 0.99 0.90 1.26 0.90 0.59 0.48 0.43 0.35 0.25 0.21 0.22 0.28 0.34 0.36 0.40 0.44 0.50 0.59 0.60 0.62 0.64 0.69 0.84 1.09 1.22 1.20 1.30 1.41 1.61 1.90 2.18 2.32 2.37 2.37 2.24 2.09 1.96 1.87 1.78 1.74 1.68 1.66 1.65 1.64 1.65 1.64 1.69 1.76
0.72 0.88 1.04 1.60 1.44 0.87 0.54 0.40 0.49 0.39 0.30 0.25 0.28 0.36 0.40 0.41 0.46 0.51 0.62 0.67 0.68 0.66 0.69 0.82 0.98 1.21 1.24 1.26 1.34 1.45 1.61 1.87 2.12 2.31 2.40 2.26 2.16 2.09 2.10 2.01 1.90 1.79 1.80 1.78 1.72 1.64 1.55 1.58 1.65
0.84 1.09 1.32 1.35 1.10 0.96 0.73 0.59 0.62 0.53 0.45 0.40 0.35 0.37 0.43 0.44 0.50 0.56 0.62 0.69 0.73 0.71 0.73 0.84 0.96 1.14 1.32 1.36 1.33 1.43 1.55 1.75 1.93 2.03 2.19 2.29 2.27 2.18 2.21 2.21 2.13 2.00 1.92 1.89 1.87 1.81 1.73 1.68 1.61
0.83 0.98 1.15 1.42 1.08 0.69 0.72 0.66 0.52 0.44 0.41 0.40 0.38 0.37 0.44 0.51 0.58 0.61 0.64 0.66 0.70 0.75 0.78 0.80 0.95 1.10 1.24 1.38 1.41 1.44 1.54 1.75 1.89 1.88 1.91 2.03 2.21 2.21 2.20 2.33 2.32 2.22 2.11 2.03 2.03 2.02 1.95 1.91 1.81